Orbital Elements at Epoch 2459200.5 (2020-Dec-17.0) TDB
Reference: JPL 26 (heliocentric ecliptic J2000)
Element | Value | Uncertainty (1-sigma) | Units |
e | .1090251374800189 | 3.5383e-08 | |
a | 2.563559741314389 | 9.9414e-09 | au |
q | 2.284067288079346 | 9.3102e-08 | au |
i | 1.114219852779242 | 3.711e-06 | deg |
node | 19.52844513667702 | 0.00016343 | deg |
peri | 342.5374114939699 | 0.00016411 | deg |
M | 272.6270759802444 | 1.6358e-05 | deg |
tp | 2459564.363053890475 (2021-Dec-15.86305389) | 6.9171e-05 | TDB |
period | 1499.213868256867 4.10 | 8.7209e-06 2.388e-08 | d yr |
n | .2401258470337999 | 1.3968e-09 | deg/d |
Q | 2.843052194549432 | 1.1025e-08 | au |
|
| | Orbit Determination Parameters
Additional Information
|